Flag for U.S.A. Weather past 2 weeks in Grand Prairie, Texas, U.S.A.

Now
79 °F

Sunny.


Feels Like: 81 °F
Forecast: 69 / 89 °F
Wind: 7 mph from South

Location: Grand Prairie Municipal Airport

Current Time: Sep 30, 2014 at 11:07:17 AM

Latest Report: Sep 30, 2014 at 9:50 AM


Visibility: 10 mi

Pressure: 29.92 "Hg

Humidity: 65%

Dew point: 66 °F

Location of Grand PrairieLocation

Historic Weather in Grand Prairie — Graph

°F

Grand Prairie temperature yesterday

Maximum temperature yesterday: 88 °F (at 3:50 PM)
Minimum temperature yesterday: 66 °F (at 7:50 AM)
Average temperature yesterday: 77 °F

Past Weeks' High & Low Weather Summary

 TemperatureHumidityPressure
High93 °F (Sep 17, 3:50 PM)100% (Sep 18, 6:50 AM)30.22 "Hg (Sep 18, 6:50 AM)
Low46 °F (Sep 18, 10:50 AM)18% (Sep 24, 2:50 PM)29.85 "Hg (Sep 18, 3:50 PM)
Average76 °F59%30.05 "Hg
* Reported Sep 15 10:50 AM — Sep 30 9:50 AM, Grand Prairie, Weather by CustomWeather, © 2014

Note: Actual official high and low records may vary slightly from our data, if they occured in-between our weather recording intervals... More about our weather records

Advertising

Grand Prairie weather history for previous 24 hours

 ConditionsComfort  
Time TempWeatherWind HumidityBarometerVisibility
9:50 AM
Sep 30
79 °FSunny.7 mph65%29.92 "Hg10 mi
8:50 AM75 °FSunny.No wind74%29.92 "Hg10 mi
7:50 AM70 °FClear.No wind83%29.92 "Hg10 mi
6:50 AM72 °FClear.No wind78%29.91 "Hg10 mi
6:35 AM72 °FClear.No wind78%29.91 "Hg10 mi
6:15 AM72 °FClear.No wind77%29.91 "Hg10 mi
5:55 AM73 °FClear.No wind77%29.91 "Hg10 mi
5:35 AM73 °FClear.No wind77%29.91 "Hg10 mi
5:15 AM72 °FClear.No wind78%29.91 "Hg10 mi
4:55 AM72 °FClear.No wind77%29.91 "Hg10 mi
4:35 AM72 °FClear.No wind76%29.91 "Hg10 mi
4:15 AM73 °FClear.No wind75%29.91 "Hg7 mi
3:55 AM73 °FClear.No wind75%29.91 "Hg10 mi
3:35 AM73 °FClear.3 mph74%29.91 "Hg10 mi
3:15 AM74 °FClear.3 mph73%29.91 "Hg10 mi
2:55 AM74 °FClear.5 mph73%29.92 "Hg10 mi
2:15 AM74 °FClear.3 mph70%29.92 "Hg10 mi
1:55 AM74 °FClear.6 mph70%29.91 "Hg10 mi
1:35 AM74 °FClear.6 mph70%29.91 "Hg10 mi
1:15 AM74 °FClear.3 mph68%29.92 "Hg10 mi
12:55 AM74 °FClear.3 mph67%29.92 "Hg10 mi
12:35 AM75 °FClear.No wind65%29.93 "Hg10 mi
12:15 AM76 °FClear.No wind65%29.93 "Hg10 mi
11:55 PM
Sep 29
76 °FClear.5 mph64%29.93 "Hg10 mi
11:35 PM76 °FClear.3 mph62%29.93 "Hg10 mi
11:15 PM76 °FClear.5 mph60%29.93 "Hg10 mi
10:55 PM77 °FClear.6 mph59%29.92 "Hg10 mi
10:15 PM78 °FClear.6 mph56%29.92 "Hg10 mi
9:55 PM79 °FPassing clouds.6 mph54%29.92 "Hg10 mi
9:35 PM80 °FPassing clouds.7 mph53%29.92 "Hg10 mi
9:15 PM80 °FPassing clouds.6 mph51%29.92 "Hg10 mi
8:55 PM81 °FClear.7 mph50%29.92 "Hg10 mi
8:15 PM82 °FPassing clouds.5 mph46%29.92 "Hg10 mi
7:50 PM82 °FSunny.5 mph42%29.91 "Hg10 mi
6:50 PM84 °FSunny.6 mph40%29.91 "Hg10 mi
5:50 PM86 °FSunny.7 mph38%29.92 "Hg10 mi
4:50 PM88 °FSunny.9 mph35%29.91 "Hg10 mi
3:50 PM88 °FSunny.5 mph35%29.93 "Hg10 mi
2:50 PM86 °FSunny.7 mph38%29.95 "Hg10 mi
1:50 PM86 °FSunny.No wind38%29.99 "Hg10 mi
12:50 PM84 °FSunny.7 mph40%30.01 "Hg10 mi
11:50 AM81 °FSunny.7 mph51%30.03 "Hg10 mi
Weather by CustomWeather, © 2014

See weather overviewHow to use our weather pages